Track STARLINK-4126 now! 10-day predictions STARLINK-4126 is classified as:
1 52867U 22062AP 22230.91667824 -.00020360 00000-0 -35109-3 0 9996 2 52867 53.2169 97.5338 0001344 55.7668 301.8838 15.49933576 10307